Regional Weather Roundup
Issued by NWS

Home | Current Version | Previous Version | Graphics & Text | Print | Product List | Glossary On
Versions: 1 2 3 4 5 6 7 8 9 10 11 12 13 14 15 16 17 18 19 20 21 22 23 24 25 26 27 28 29 30 31 32 33 34 35 36 37 38 39 40 41 42 43 44 45 46 47 48 49 50
000
ASUS44 KMEG 200610
RWRTN
TENNESSEE HOURLY STATE WEATHER ROUNDUP
NATIONAL WEATHER SERVICE MEMPHIS TN
1200 AM CST SAT DEC 20 2014

TNZ002-004-019-021-049-052-054-088>092-200700-
WEST TENNESSEE

CITY           SKY/WX    TMP DP  RH WIND       PRES   REMARKS
MEMPHIS INTL   PTCLDY    40  31  70 NE5       30.23S
NWS MEMPHIS      N/A     38 N/A N/A MISG        N/A
JACKSON        CLOUDY    37  31  78 CALM      30.23F
DYERSBURG      CLOUDY    37  23  56 NE3       30.26S
UNION CITY     CLOUDY    34  30  86 N3        30.24S
PARIS          CLEAR     28  27  93 N3        30.24S
HUNTINGDON     CLOUDY    34  29  82 N5        30.23F WCI  30
LEXINGTON      PTCLDY    36  28  75 N5        30.22R WCI  32
SAVANNAH       CLOUDY    37  30  75 N3        30.21S
$$

TNZ008-025-027-028-033-062-065-066-200700-
NORTH MIDDLE TENNESSEE

CITY           SKY/WX    TMP DP  RH WIND       PRES   REMARKS
NASHVILLE      CLOUDY    37  28  70 N5        30.22F WCI  33
CLARKSVILLE    MOCLDY    33  27  78 N5        30.24S WCI  29
SMYRNA         CLOUDY    36  28  73 N5        30.22F WCI  32
COOKEVILLE     PTCLDY    36  28  75 N5        30.18F WCI  32
CROSSVILLE     CLOUDY    35  26  69 NW5       30.15F WCI  31
$$

TNZ061-075-076-078-094-096-097-200700-
SOUTH MIDDLE TENNESSEE

CITY           SKY/WX    TMP DP  RH WIND       PRES   REMARKS
FAYETTEVILLE   MOCLDY    34  30  86 MISG      30.18S
TULLAHOMA      PTCLDY    34  28  80 N6        30.17F WCI  29
WINCHESTER     CLOUDY    36  30  80 N5        30.18F WCI  32
MCMINNVILLE    PTCLDY    36  28  75 CALM      30.18F
SHELBYVILLE    CLOUDY    36  30  80 NE5       30.19F WCI  32
$$

TNZ017-018-042-046-047-200700-
NORTHEAST TENNESSEE

CITY           SKY/WX    TMP DP  RH WIND       PRES   REMARKS
TRI CITIES     CLOUDY    33  28  81 CALM      30.17S
ELIZABETHTON   CLEAR     34  25  69 CALM      30.16S
$$

TNZ012-013-036-069-073-074-200700-
CENTRAL EAST TENNESSEE

CITY           SKY/WX    TMP DP  RH WIND       PRES   REMARKS
KNOXVILLE      CLOUDY    38  28  67 N5        30.15F WCI  34
OAK RIDGE      CLOUDY    39  29  67 CALM      30.17F
GATLINBURG     PTCLDY    34  30  86 CALM      30.15F
MORRISTOWN     CLEAR     36  28  75 E3        30.14F
$$

TNZ083-085-099-200700-
SOUTHEAST TENNESSEE

CITY           SKY/WX    TMP DP  RH WIND       PRES   REMARKS
CHATTANOOGA    CLOUDY    43  29  57 N7        30.16F
$$

SKY/WX REPORTED AS FAIR MEANS FEW OR NO CLOUDS BELOW
12 THOUSAND FEET.



USA.gov is the U.S. government's official web portal to all federal, state and local government web resources and services.